Location: Brunembert
(50.7122°N, 1.8935°E)
Time: 09:15:25
(UTC+00:00)

NOSS 2-2 (C) - Pass Details

Date: 22 April 2021
Orbit: 458 x 1749 km, 63.3° (Epoch: 02 May)

Event Time Altitude Azimuth Distance (km) Brightness Sun altitude
Rises 23:06:16 0° 316° (NW) 3,009 8.0 -26.0°
Reaches altitude 10° 23:08:17 10° 316° (NW) 2,227 7.1 -26.1°
Maximum altitude 23:13:25 86° 45° (NE) 913 4.2 -26.2°
Enters shadow 23:14:34 62° 129° (SE) 1,065 4.4 -26.3°
